Wind_Speed
12 13 11 11 11 12 13 14 17 19 18 17 15 13 11 10 9 10 8 6 5 4 3 2 0 3 8 11 13 15 17 18 19 17 17 17 17 17 16 15 14 12 12
11 12 11 11 11 12 12 14 16 18 18 18 17 15 13 11 9 9 9 7 6 5 4 4 3 0 8 13 14 14 14 14 17 15 13 14 15 16 15 15 15 15 15
8 10 11 10 11 11 12 13 15 16 17 17 17 16 15 13 11 10 9 8 6 5 4 4 5 3 4 12 14 13 13 12 13 12 10 12 15 16 16 16 16 16 17
5 7 9 10 10 10 10 11 13 14 15 16 16 16 15 13 12 10 9 9 8 5 3 4 5 3 1 8 12 13 13 10 9 9 8 9 13 15 16 16 16 16 17
2 3 5 7 9 9 9 9 10 12 13 14 15 15 15 15 14 12 10 9 8 7 5 4 5 4 2 6 9 11 10 8 7 8 9 8 9 12 13 14 14 15 16
2 1 2 4 6 7 6 7 8 9 10 12 12 13 13 14 15 13 12 11 9 8 7 6 6 5 2 5 8 9 9 7 6 7 9 7 7 8 10 11 11 10 12
4 2 1 1 3 4 4 5 6 6 6 8 9 10 11 12 13 13 12 12 11 11 10 8 7 5 2 3 6 7 7 6 5 6 7 7 8 7 8 9 8 7 8
4 4 3 3 1 2 3 4 5 4 3 2 4 6 7 8 11 12 13 12 13 12 11 10 8 6 3 2 4 6 7 6 5 5 5 7 8 8 8 8 8 8 8
3 3 4 5 5 3 2 3 4 3 3 1 2 3 4 4 5 8 11 13 14 13 11 10 9 7 5 2 3 4 6 6 5 4 5 6 7 7 8 9 10 9 8
2 1 3 6 7 7 5 3 3 3 3 2 2 4 5 4 3 4 5 9 12 12 10 9 8 7 5 4 3 4 5 6 6 5 6 7 6 5 6 8 11 10 8
4 2 3 5 8 9 9 8 6 5 3 2 3 4 5 5 5 5 4 3 7 8 8 7 7 6 5 4 3 5 6 7 7 6 8 9 8 6 5 5 8 10 8
3 4 5 5 8 10 11 11 10 9 7 5 6 5 6 6 6 6 5 4 4 5 5 5 5 5 4 3 2 5 7 8 9 8 9 10 9 8 7 6 6 7 7
4 4 5 6 8 11 13 14 13 12 10 9 8 9 9 9 7 6 5 5 5 4 2 1 1 2 3 2 1 5 9 11 11 11 11 12 11 10 9 8 7 7 7
9 8 7 8 10 12 14 15 15 14 13 11 11 11 11 11 9 8 8 7 6 7 7 7 6 5 3 2 3 5 9 12 14 14 15 15 15 14 13 13 12 11 10
12 12 11 11 12 13 14 15 17 16 15 14 14 13 13 12 11 10 10 10 9 9 10 11 11 10 9 7 7 8 10 14 17 18 18 19 20 19 19 18 16 16 14
16 14 14 14 14 14 16 17 17 18 18 18 18 17 17 16 15 13 11 11 12 13 14 15 14 12 11 11 11 12 12 15 19 22 23 24 24 24 23 22 21 20 19
23 21 20 18 18 17 16 18 19 20 20 21 21 20 21 20 18 16 15 14 14 16 18 19 18 16 16 16 16 15 16 16 19 22 25 27 28 28 28 27 27 26 24
27 26 24 21 20 20 18 17 19 21 22 22 22 22 22 23 22 19 17 17 18 19 20 21 19 20 21 21 21 18 18 20 21 24 26 28 30 30 31 31 31 30 29
31 29 27 24 22 22 21 19 20 22 22 23 22 23 23 24 24 21 19 19 21 21 21 21 22 23 24 24 24 22 21 22 24 26 27 29 31 32 31 31 31 30 30
34 33 30 28 26 25 25 24 24 24 25 26 26 25 26 27 27 23 21 22 23 24 23 22 23 23 25 26 26 25 23 24 25 26 27 28 29 31 31 30 30 30 29
36 35 33 32 31 30 30 30 29 28 27 28 29 29 29 30 29 25 23 24 24 24 24 24 23 24 25 25 25 24 22 22 24 26 25 25 26 28 29 28 27 28 28
37 37 36 35 35 35 34 35 35 32 29 30 32 33 33 32 31 27 25 24 24 24 24 25 26 26 24 23 22 22 23 24 25 25 24 24 24 25 26 25 25 25 26
36 38 38 38 38 38 38 39 40 37 34 34 35 36 37 35 33 30 27 25 24 24 25 26 26 24 23 22 22 24 26 25 25 25 24 24 24 23 24 24 23 24 25
35 38 39 39 39 40 41 43 45 41 38 39 39 39 39 37 34 32 28 26 25 25 26 26 25 22 22 23 24 25 26 26 26 27 27 26 25 26 26 26 25 24 26
35 39 40 40 41 42 43 46 49 46 41 43 43 39 37 36 34 32 29 28 27 27 27 27 24 22 22 24 26 26 27 27 27 27 28 28 27 27 28 27 27 25 26
35 39 41 42 44 45 45 48 50 49 44 44 45 41 37 35 34 31 28 28 29 28 28 27 25 24 24 24 26 27 27 26 26 26 26 28 27 27 26 24 25 26 26
Wind_Direction
78 76 89 101 93 77 66 59 59 67 72 75 75 75 77 77 73 70 65 67 77 77 62 42 39 197 189 191 202 213 220 224 222 223 228 235 235 232 235 240 241 239 243
81 76 82 95 94 85 74 64 59 63 69 75 76 76 76 75 71 64 58 60 66 70 60 33 23 216 200 202 207 214 220 223 212 216 222 227 228 228 233 239 240 240 242
84 74 77 92 97 91 83 73 62 62 70 76 79 79 77 75 72 66 57 57 59 59 47 26 17 5 206 205 209 215 220 220 201 206 214 223 226 230 238 241 245 244 242
98 75 73 86 96 94 91 83 70 65 71 78 81 80 78 74 70 66 59 54 52 47 29 12 11 2 198 198 207 213 214 216 205 206 216 224 225 230 235 239 244 244 244
116 81 72 79 90 95 99 97 85 76 74 76 80 80 80 76 70 66 61 55 53 49 38 21 17 22 120 171 189 201 201 202 202 210 209 211 218 223 225 229 237 242 243
172 131 79 81 89 98 109 112 105 95 82 76 76 76 78 78 73 68 65 56 49 44 40 34 27 34 93 164 179 193 195 196 194 198 193 195 198 204 212 219 229 240 236
181 197 210 141 107 111 126 134 129 119 98 79 74 72 72 75 76 71 67 61 50 42 38 34 28 35 60 157 173 183 192 200 201 197 194 198 201 200 211 218 225 226 222
169 197 219 219 203 165 154 153 152 151 140 93 63 61 62 64 70 69 64 59 50 41 39 39 31 30 48 145 167 171 183 195 202 218 222 215 218 223 228 223 218 211 218
151 199 227 230 230 234 211 170 165 185 202 239 317 358 18 37 51 60 62 56 48 39 37 42 43 40 48 91 169 179 184 189 196 205 216 223 227 227 226 222 215 208 215
96 197 229 236 237 242 246 225 187 193 219 256 302 339 347 344 357 22 50 53 48 40 35 42 49 55 68 95 146 180 194 203 205 205 214 214 214 218 229 230 221 215 217
19 342 269 241 238 242 247 242 227 227 237 265 298 330 344 337 328 340 351 22 43 47 42 45 52 59 76 104 155 199 218 226 228 222 207 202 206 217 230 234 226 223 219
358 346 324 278 253 248 247 243 242 246 251 264 278 294 309 321 319 323 333 337 4 42 57 61 66 63 68 84 160 212 225 229 231 230 218 210 211 218 225 224 223 222 224
295 293 296 283 267 257 251 247 244 245 245 254 269 280 287 293 302 304 305 318 329 338 314 312 22 53 63 67 199 220 226 227 226 226 225 224 225 227 227 229 234 237 238
279 273 271 271 268 260 252 248 245 242 241 251 262 273 278 280 284 286 277 280 295 306 299 284 281 283 279 285 262 242 235 234 233 230 228 230 233 237 236 231 231 238 241
275 272 269 267 269 264 255 249 247 246 246 248 255 265 272 272 274 274 266 265 274 287 293 287 283 279 275 278 278 270 258 250 246 242 238 236 236 238 241 241 239 239 241
284 278 274 267 262 261 255 247 244 244 245 247 253 263 268 266 265 265 261 260 267 276 283 284 278 282 285 289 287 276 266 261 257 251 245 243 242 242 243 246 248 247 244
291 290 286 278 256 250 251 249 245 243 247 251 256 262 265 263 258 257 255 259 267 274 279 283 280 282 289 294 296 286 268 261 263 262 257 252 250 248 247 249 253 254 251
289 292 292 286 265 249 248 253 253 250 251 253 255 256 257 258 257 254 249 260 270 273 276 282 283 285 290 293 295 290 274 266 267 268 265 263 259 256 254 253 255 257 257
285 287 288 284 274 256 249 250 255 255 253 252 251 251 252 257 259 253 247 259 268 269 272 279 281 283 287 291 292 288 276 273 275 274 269 265 261 258 257 256 256 257 256
277 279 281 279 274 266 259 255 255 256 256 256 255 255 255 258 257 250 252 262 268 269 271 276 280 282 288 292 291 289 281 277 278 276 272 267 262 259 257 256 255 254 253
266 270 272 272 271 269 267 263 259 257 257 259 260 259 257 258 256 251 257 262 266 270 274 281 285 289 295 294 291 289 283 280 279 276 272 270 266 262 259 256 255 254 251
260 261 263 265 266 267 267 266 264 261 258 260 263 263 258 256 254 252 258 260 264 269 277 285 291 295 295 292 289 287 282 282 279 277 275 271 267 262 259 258 256 254 251
261 258 257 258 261 263 263 265 267 266 264 264 264 264 258 253 251 252 256 258 263 269 278 286 293 296 293 290 288 284 282 282 280 280 278 272 266 260 257 255 257 254 251
260 254 252 251 255 260 260 261 264 265 266 267 266 265 260 252 249 252 254 257 262 270 280 287 291 291 289 288 287 283 280 278 278 279 276 272 269 266 262 258 256 253 250
263 253 248 245 247 252 257 258 259 261 264 266 264 265 264 256 250 251 252 254 262 271 279 285 286 286 285 286 285 282 278 274 274 273 271 269 269 269 265 259 252 248 247
268 256 249 245 244 247 253 257 256 256 259 263 262 261 262 254 250 251 250 252 260 267 274 277 278 281 283 283 281 279 275 271 271 269 267 265 266 267 264 256 249 245 243
Height
5913 5912 5911 5911 5910 5910 5910 5909 5907 5904 5903 5902 5901 5900 5899 5898 5897 5897 5896 5895 5894 5894 5894 5894 5894 5894 5895 5895 5895 5897 5898 5899 5900 5902 5903 5905 5906 5907 5909 5910 5911 5912 5913
5913 5913 5912 5912 5911 5911 5910 5910 5908 5907 5905 5904 5902 5901 5900 5899 5899 5898 5897 5896 5895 5894 5894 5893 5893 5893 5893 5894 5895 5896 5897 5897 5899 5900 5901 5902 5904 5905 5907 5908 5909 5910 5911
5913 5913 5913 5912 5912 5912 5911 5911 5910 5909 5908 5906 5904 5903 5901 5900 5900 5899 5898 5897 5896 5895 5894 5893 5892 5892 5892 5892 5894 5895 5896 5897 5897 5898 5899 5901 5902 5903 5904 5906 5907 5908 5909
5913 5913 5913 5912 5912 5912 5912 5912 5912 5911 5911 5909 5907 5905 5903 5902 5900 5899 5898 5897 5896 5895 5895 5894 5893 5892 5891 5892 5893 5894 5895 5896 5896 5896 5898 5898 5899 5900 5902 5903 5904 5905 5906
5913 5913 5913 5913 5913 5913 5913 5913 5913 5913 5913 5912 5910 5908 5906 5904 5902 5901 5900 5898 5897 5896 5895 5895 5894 5892 5892 5892 5893 5894 5895 5895 5895 5896 5896 5897 5898 5899 5900 5901 5902 5903 5903
5913 5913 5913 5913 5913 5913 5913 5914 5914 5914 5914 5913 5912 5910 5908 5906 5904 5903 5902 5900 5898 5897 5896 5895 5894 5893 5893 5892 5893 5895 5895 5896 5896 5896 5896 5897 5897 5898 5899 5900 5901 5901 5901
5912 5912 5913 5913 5913 5913 5913 5913 5914 5914 5915 5914 5913 5912 5910 5908 5906 5905 5904 5902 5900 5898 5897 5895 5895 5894 5894 5893 5893 5894 5895 5896 5897 5897 5897 5897 5898 5898 5899 5899 5900 5900 5900
5911 5911 5911 5912 5912 5913 5913 5913 5914 5914 5915 5914 5914 5913 5911 5910 5909 5907 5906 5904 5902 5900 5898 5896 5896 5895 5894 5894 5894 5894 5895 5896 5897 5898 5898 5898 5898 5898 5898 5898 5899 5899 5899
5910 5911 5911 5911 5911 5912 5912 5913 5913 5913 5913 5913 5913 5913 5912 5911 5910 5909 5907 5906 5904 5902 5900 5898 5896 5895 5895 5894 5895 5895 5896 5896 5897 5898 5898 5898 5899 5899 5898 5898 5898 5898 5898
5910 5910 5910 5910 5910 5911 5912 5912 5912 5912 5912 5912 5913 5912 5912 5911 5910 5909 5908 5907 5905 5903 5901 5899 5897 5896 5895 5895 5895 5896 5897 5897 5897 5897 5898 5898 5898 5898 5899 5899 5898 5898 5897
5909 5908 5908 5908 5908 5909 5910 5911 5911 5911 5911 5911 5911 5911 5910 5910 5909 5908 5907 5907 5905 5904 5902 5900 5898 5896 5895 5894 5895 5895 5896 5896 5896 5896 5897 5897 5898 5898 5899 5899 5898 5898 5897
5907 5907 5907 5907 5906 5907 5907 5908 5909 5909 5909 5909 5910 5909 5909 5909 5908 5907 5906 5905 5905 5903 5902 5900 5898 5897 5896 5895 5894 5894 5895 5895 5896 5896 5897 5897 5897 5897 5898 5899 5899 5898 5898
5906 5905 5905 5904 5904 5904 5905 5905 5906 5907 5907 5907 5907 5907 5907 5907 5906 5905 5904 5904 5904 5903 5901 5900 5899 5897 5896 5895 5894 5893 5893 5893 5894 5894 5896 5896 5896 5896 5896 5897 5898 5898 5898
5904 5903 5903 5902 5902 5902 5902 5902 5902 5903 5904 5904 5904 5904 5904 5904 5904 5903 5902 5902 5901 5901 5900 5899 5898 5897 5896 5895 5893 5892 5891 5891 5891 5891 5892 5893 5894 5894 5895 5895 5896 5896 5897
5902 5901 5900 5899 5899 5899 5899 5898 5899 5899 5900 5901 5901 5901 5901 5901 5901 5900 5899 5899 5899 5898 5897 5896 5896 5895 5895 5894 5893 5892 5890 5889 5888 5888 5888 5889 5890 5891 5892 5893 5893 5893 5894
5899 5898 5898 5897 5896 5896 5896 5895 5895 5895 5896 5896 5897 5897 5897 5897 5897 5897 5896 5896 5895 5894 5894 5893 5893 5892 5892 5892 5891 5890 5889 5887 5886 5885 5884 5885 5886 5886 5887 5888 5890 5890 5891
5895 5895 5895 5893 5893 5892 5892 5892 5891 5891 5891 5891 5892 5893 5892 5892 5892 5892 5892 5892 5892 5891 5890 5890 5889 5889 5888 5888 5887 5887 5886 5884 5883 5882 5881 5880 5880 5881 5882 5884 5885 5886 5887
5889 5889 5889 5888 5888 5887 5888 5888 5887 5886 5885 5885 5886 5886 5887 5887 5887 5888 5888 5888 5888 5888 5887 5886 5886 5885 5884 5883 5883 5882 5881 5880 5879 5878 5876 5875 5875 5875 5876 5878 5879 5881 5882
5882 5883 5883 5883 5883 5883 5883 5883 5882 5881 5880 5880 5880 5880 5881 5882 5882 5883 5883 5883 5883 5883 5883 5883 5882 5881 5880 5879 5878 5877 5877 5876 5875 5873 5872 5870 5869 5869 5870 5872 5873 5875 5877
5874 5874 5875 5876 5876 5877 5877 5876 5876 5875 5875 5875 5875 5875 5876 5876 5876 5877 5878 5878 5877 5877 5878 5878 5878 5877 5877 5875 5874 5873 5872 5871 5870 5869 5867 5865 5863 5863 5864 5865 5867 5869 5870
5867 5866 5867 5868 5869 5869 5870 5869 5869 5868 5869 5869 5869 5869 5869 5870 5871 5871 5872 5872 5872 5872 5872 5872 5872 5872 5871 5869 5868 5867 5867 5866 5865 5864 5862 5860 5858 5858 5859 5859 5860 5862 5864
5859 5859 5860 5861 5862 5862 5862 5862 5862 5862 5862 5862 5862 5862 5862 5863 5865 5866 5866 5867 5867 5867 5867 5866 5865 5865 5864 5863 5862 5861 5861 5861 5859 5858 5857 5855 5854 5853 5854 5854 5855 5857 5859
5850 5851 5852 5853 5854 5855 5855 5854 5854 5854 5855 5855 5855 5855 5855 5855 5857 5859 5860 5861 5861 5861 5861 5860 5859 5859 5858 5857 5857 5856 5856 5855 5853 5853 5852 5850 5849 5848 5848 5849 5850 5852 5854
5841 5842 5843 5845 5847 5847 5847 5847 5847 5847 5847 5847 5847 5847 5847 5848 5850 5852 5854 5855 5854 5854 5854 5854 5854 5854 5853 5852 5851 5850 5850 5849 5848 5847 5846 5845 5845 5844 5844 5844 5845 5847 5849
5832 5833 5833 5835 5837 5838 5838 5838 5838 5838 5839 5838 5838 5839 5840 5842 5843 5845 5846 5848 5848 5848 5847 5847 5847 5847 5847 5846 5845 5844 5843 5842 5840 5840 5840 5839 5839 5838 5838 5838 5839 5841 5843
5823 5824 5825 5826 5827 5829 5830 5830 5831 5831 5832 5832 5830 5831 5833 5834 5836 5837 5839 5841 5842 5842 5842 5841 5841 5840 5840 5839 5838 5837 5836 5835 5833 5833 5833 5832 5832 5832 5831 5832 5833 5835 5837